[[{"header":{"parameterUnit":"m.s-1","parameterCategory":1,"la1":30.2991,"la2":30.254,"lo1":-89.0895,"lo2":-89.0444,"dy":0.0017,"dx":0.0017,"nx":28,"ny":28,"refTime":"2024-08-23T09:00:00:Z","depth":0,"parameterNumber":2,"parameterNumberName":"U-component_of_WINDS"},"data":[0,0,0,0,0,0,0,0,0,0,0,0,0,0,0,0,0,0,0,0,0,0,0,0,0,0,0,0,0,0,0,0,0,0,0,0,0,0,0,0,0,0,0,0,0,0,0,0,0,0,0,0,0,0,0,0,0,0,-6.3654,-6.3654,0,-6.3711,-6.3712,-6.3712,-6.3536,-6.3531,-6.3526,-6.3521,-6.3582,-6.3588,-6.3595,0,0,0,0,0,0,0,0,0,0,0,0,0,-6.3392,-6.3398,-6.3654,-6.3655,-6.3655,-6.3711,-6.3712,-6.3713,-6.3537,-6.3531,-6.3524,-6.3518,-6.358,-6.3588,-6.3596,0,0,0,0,0,0,0,0,0,0,0,0,0,-6.3483,-6.34,-6.3654,-6.3574,-6.3568,-6.3711,-6.3712,-6.3713,-6.3539,-6.3531,-6.3523,-6.3515,-6.3577,-6.3587,-6.3597,-6.382,0,0,-6.3627,-6.3631,0,0,0,0,0,0,0,0,-6.3479,-6.3493,-6.3585,-6.358,-6.3573,-6.3608,-6.3642,-6.3749,-6.3541,-6.355,-6.352,-6.3511,-6.3597,-6.3605,-6.3634,-6.3823,-6.3825,-6.3628,-6.3634,-6.3638,-6.3641,0,0,0,0,0,0,0,-6.3472,-6.349,-6.3676,-6.3587,-6.3579,-6.3536,-6.354,-6.3661,-6.3618,-6.3548,-6.3536,-6.3545,-6.3592,-6.3625,-6.3634,-6.3826,-6.3628,-6.3637,-6.3643,-6.3647,-6.4197,-6.4205,0,0,0,0,0,0,-6.3476,-6.3486,-6.3675,-6.3678,-6.3505,-6.3547,-6.3552,-6.3605,-6.3616,-6.361,-6.3552,-6.3536,-6.3612,-6.3622,-6.3635,-6.3895,-6.3638,-6.3648,-6.3653,-6.4188,-6.4199,-6.4208,0,0,0,0,0,0,-6.3471,-6.3495,-6.3672,-6.3578,-6.3598,-6.356,-6.3622,-6.3611,-6.3642,-6.3619,-6.361,-6.3592,-6.3606,-6.3621,-6.3774,-6.3894,-6.3652,-6.3661,-6.4178,-6.4192,-6.4203,-6.4417,0,0,0,0,0,0,-6.3465,-6.3494,-6.3579,-6.3582,-6.3603,-6.3811,-6.3629,-6.3618,-6.366,-6.364,-6.3655,-6.3649,-6.36,-6.376,-6.3784,-6.3904,-6.3669,-6.4167,-6.4184,-6.4199,-6.4399,-6.4436,-6.4467,0,0,0,0,0,-6.3456,-6.3638,-6.3584,-6.3608,-6.3709,-6.3818,-6.3831,-6.377,-6.367,-6.3754,-6.3739,-6.3649,-6.3878,-6.3777,-6.3803,-6.3927,-6.4159,-6.4179,-6.4198,-6.4384,-6.4428,-6.4466,0,0,0,0,0,0,-6.3652,-6.3637,-6.3577,-6.3766,-6.3794,-6.3788,-6.3893,-6.382,-6.3878,-6.3858,-6.378,-6.3785,-6.3951,-6.3954,-6.3843,-6.4142,-6.4001,-6.4027,-6.4134,-6.4176,-6.4209,-6.4205,-6.3677,0,0,0,0,0,-6.3717,-6.3807,-6.3789,-6.3957,-6.3974,-6.3932,-6.3977,-6.3928,-6.3955,-6.3966,-6.3962,-6.3992,-6.4069,-6.4123,-6.4194,-6.4398,-6.4398,-6.4496,-6.453,-6.4558,-6.4581,-6.4687,-6.4729,-6.4272,-6.4272,-6.4271,0,0,-6.3853,-6.3855,-6.3918,-6.3997,-6.4013,-6.4107,-6.3943,-6.4051,-6.412,-6.3983,-6.4126,-6.4124,-6.4152,-6.4331,-6.441,-6.4339,-6.4707,-6.4583,-6.4606,-6.4613,-6.4711,-6.4754,-6.4793,-6.4285,-6.4283,-6.4281,0,0,-6.4147,-6.416,-6.4299,-6.4318,-6.4344,-6.4314,-6.4348,-6.4353,-6.4345,-6.4487,-6.4385,-6.4466,-6.4603,-6.4627,-6.4657,-6.4957,-6.4876,-6.4982,-6.516,-6.5264,-6.53,-6.5331,-6.5436,-6.5475,-6.5005,-6.5006,-6.5006,0,-6.4313,-6.4451,-6.4381,-6.4494,-6.4531,-6.4409,-6.4549,-6.4572,-6.4621,-6.4649,-6.4568,-6.4735,-6.4746,-6.4927,-6.5,-6.5029,-6.5064,-6.498,-6.53,-6.5331,-6.5359,-6.5459,-6.5499,-6.5018,-6.5017,-6.5016,-6.5015,0,-6.4652,-6.4749,-6.4859,-6.4906,-6.4955,-6.5083,-6.5031,-6.5089,-6.5035,-6.5013,-6.5158,-6.5166,-6.5235,-6.5274,-6.5223,-6.5448,-6.5402,-6.5313,-6.517,-6.5417,-6.5508,-6.5546,-6.5037,-6.5032,-6.5028,-6.5025,0,0,-6.5073,-6.5078,-6.512,-6.5138,-6.5157,-6.5231,-6.5351,-6.5416,-6.5467,-6.5504,-6.5602,-6.5719,-6.5635,-6.5669,-6.5619,-6.5711,-6.5945,-6.5608,-6.5608,-6.5669,-6.619,-6.6257,-6.6302,-6.5891,-6.5898,-6.5904,-6.6187,0,-6.5362,-6.5566,-6.5505,-6.5711,-6.5799,-6.5683,-6.5787,-6.581,-6.5792,-6.5864,-6.5844,-6.5927,-6.5811,-6.583,-6.5915,-6.5899,-6.6048,-6.5877,-6.5981,-6.5985,-6.5976,-6.635,-6.6422,-6.6689,-6.6223,-6.6229,-6.6233,0,-6.5726,-6.5775,-6.5989,-6.599,-6.6024,-6.6119,-6.6173,-6.6243,-6.6265,-6.6245,-6.6283,-6.6213,-6.633,-6.6187,-6.6346,-6.6231,-6.6269,-6.6267,-6.6276,-6.6283,-6.6124,-6.6365,-6.6773,-6.6812,-6.629,-6.6285,-6.6281,0,-6.6009,-6.6129,-6.6271,-6.6291,-6.6297,-6.6366,-6.6371,-6.6385,-6.6428,-6.6475,-6.6501,-6.6562,-6.6596,-6.6644,-6.6592,-6.6493,-6.6759,-6.6612,-6.6745,-6.6747,-6.6806,-6.6802,-6.7223,-6.6834,-6.6833,-6.6832,-6.6832,0,-6.6337,-6.6472,-6.6398,-6.6486,-6.6633,-6.6561,-6.6709,-6.6701,-6.6715,-6.6798,-6.6703,-6.6783,-6.671,-6.6784,-6.6745,-6.6881,-6.6898,-6.6884,-6.6872,-6.6892,-6.6894,-6.6916,-6.6895,-6.6843,-6.6841,-6.6839,-6.6837,0,-6.6678,-6.6634,-6.6782,-6.6773,-6.6774,-6.6883,-6.6875,-6.6956,-6.693,-6.7037,-6.7058,-6.7019,-6.71,-6.7053,-6.7138,-6.7111,-6.7287,-6.7251,-6.728,-6.7269,-6.7404,-6.7391,-6.7852,-6.7908,-6.7485,-6.7489,-6.7493,0,-6.6889,-6.699,-6.6992,-6.704,-6.7051,-6.7131,-6.7173,-6.7106,-6.7153,-6.7184,-6.7261,-6.7334,-6.7388,-6.7524,-6.7503,-6.7566,-6.7529,-6.7686,-6.7538,-6.7554,-6.7529,-6.7523,-6.7531,-6.7716,-6.7721,-6.7725,-6.7728,0,-6.7268,-6.724,-6.7304,-6.736,-6.7412,-6.7453,-6.7487,-6.7532,-6.7464,-6.7523,-6.7604,-6.7646,-6.773,-6.7804,-6.7857,-6.7862,-6.7784,-6.7775,-6.7808,-6.7829,-6.7841,-6.7834,-6.7359,-6.7765,-6.7761,-6.7758,-6.7756,-6.7755,-6.7549,-6.7632,-6.7645,-6.7718,-6.7735,-6.7768,-6.7842,-6.7824,-6.7891,-6.7953,-6.7909,-6.8005,-6.8022,-6.8085,-6.81,-6.8174,-6.811,-6.816,-6.8172,-6.8185,-6.8202,-6.7831,-6.8184,-6.8182,-6.8181,-6.8181,-6.818,0,-6.792,-6.7922,-6.7991,-6.8038,-6.8096,-6.8016,-6.8048,-6.8101,-6.8186,-6.8208,-6.8263,-6.8355,-6.8425,-6.8408,-6.8471,-6.8533,-6.8498,-6.8551,-6.8545,-6.8547,-6.8256,-6.822,-6.8578,-6.8578,-6.8578,-6.8578,-6.8577,-6.8577,-6.812,-6.8255,-6.8229,-6.8371,-6.8372,-6.8463,-6.8488,-6.8517,-6.8533,-6.864,-6.8697,-6.8685,-6.8691,-6.8753,-6.8813,-6.8806,-6.8833,-6.8899,-6.8879,-6.8607,-6.8568,-6.853,-6.8495,-6.8905,-6.8906,-6.9163,-6.9165,-6.9167]},{"header":{"parameterUnit":"m.s-1","parameterCategory":1,"la1":30.2991,"la2":30.254,"lo1":-89.0895,"lo2":-89.0444,"dy":0.0017,"dx":0.0017,"nx":28,"ny":28,"refTime":"2024-08-23T09:00:00:Z","depth":0,"parameterNumber":3,"parameterNumberName":"V-component_of_WINDS"},"data":[0,0,0,0,0,0,0,0,0,0,0,0,0,0,0,0,0,0,0,0,0,0,0,0,0,0,0,0,0,0,0,0,0,0,0,0,0,0,0,0,0,0,0,0,0,0,0,0,0,0,0,0,0,0,0,0,0,0,-0.9446,-0.9446,0,-0.9409,-0.9409,-0.9408,-0.9422,-0.9423,-0.9424,-0.9425,-0.9385,-0.9383,-0.9381,0,0,0,0,0,0,0,0,0,0,0,0,0,-0.9527,-0.9525,-0.9446,-0.9446,-0.9445,-0.9409,-0.9409,-0.9408,-0.9422,-0.9423,-0.9424,-0.9425,-0.9385,-0.9383,-0.9381,0,0,0,0,0,0,0,0,0,0,0,0,0,-0.9491,-0.9525,-0.9446,-0.9448,-0.9448,-0.9409,-0.9409,-0.9408,-0.9422,-0.9423,-0.9425,-0.9426,-0.9386,-0.9383,-0.938,-0.9337,0,0,-0.9372,-0.9371,0,0,0,0,0,0,0,0,-0.9493,-0.9488,-0.9448,-0.9448,-0.9448,-0.9422,-0.9422,-0.9384,-0.9422,-0.9432,-0.9425,-0.9426,-0.9396,-0.9392,-0.9382,-0.9335,-0.9334,-0.9372,-0.937,-0.9369,-0.9368,0,0,0,0,0,0,0,-0.9495,-0.9489,-0.9431,-0.9448,-0.9447,-0.945,-0.9446,-0.9415,-0.9407,-0.9431,-0.9432,-0.9427,-0.9396,-0.9385,-0.9381,-0.9333,-0.9372,-0.9369,-0.9367,-0.9366,-0.9246,-0.9245,0,0,0,0,0,0,-0.9498,-0.9491,-0.9433,-0.943,-0.9474,-0.9447,-0.9443,-0.9429,-0.9407,-0.9405,-0.9426,-0.9428,-0.9389,-0.9385,-0.938,-0.9326,-0.9369,-0.9366,-0.9364,-0.9248,-0.9246,-0.9244,0,0,0,0,0,0,-0.95,-0.9493,-0.9434,-0.9461,-0.9454,-0.9444,-0.9428,-0.9427,-0.9416,-0.9404,-0.9402,-0.9417,-0.939,-0.9384,-0.9347,-0.9325,-0.9365,-0.9362,-0.9249,-0.9247,-0.9245,-0.9219,0,0,0,0,0,0,-0.9502,-0.9493,-0.9478,-0.9461,-0.9452,-0.9403,-0.9427,-0.9426,-0.9412,-0.9414,-0.9395,-0.9393,-0.9391,-0.9351,-0.9345,-0.9322,-0.936,-0.9251,-0.9248,-0.9246,-0.9222,-0.9216,-0.9211,0,0,0,0,0,-0.9505,-0.9472,-0.9477,-0.9469,-0.9433,-0.9402,-0.9397,-0.9396,-0.941,-0.9393,-0.9385,-0.9393,-0.9329,-0.9348,-0.934,-0.9316,-0.9253,-0.9249,-0.9246,-0.9224,-0.9217,-0.9211,0,0,0,0,0,0,-0.9486,-0.947,-0.9475,-0.9435,-0.942,-0.9404,-0.9383,-0.9389,-0.9368,-0.9371,-0.937,-0.9365,-0.9327,-0.9318,-0.9339,-0.9272,-0.9293,-0.9288,-0.9279,-0.9272,-0.9267,-0.9269,-0.9358,0,0,0,0,0,-0.9477,-0.9454,-0.9441,-0.9407,-0.9399,-0.9392,-0.9379,-0.9379,-0.9363,-0.9356,-0.9345,-0.9328,-0.9304,-0.9288,-0.9265,-0.9221,-0.9216,-0.9201,-0.9196,-0.9191,-0.9186,-0.916,-0.9153,-0.9233,-0.9233,-0.9233,0,0,-0.9458,-0.9447,-0.9432,-0.9403,-0.9391,-0.9366,-0.9387,-0.936,-0.9341,-0.9352,-0.9316,-0.9307,-0.9288,-0.9247,-0.9228,-0.9238,-0.9163,-0.9187,-0.9184,-0.9181,-0.9156,-0.9148,-0.9142,-0.9231,-0.9231,-0.9231,0,0,-0.9411,-0.9401,-0.9371,-0.9359,-0.934,-0.9336,-0.9328,-0.9312,-0.9306,-0.9271,-0.9278,-0.9255,-0.9214,-0.9199,-0.9186,-0.9133,-0.9139,-0.9125,-0.9097,-0.9072,-0.9065,-0.906,-0.9039,-0.9031,-0.9121,-0.9121,-0.9121,0,-0.939,-0.9354,-0.9355,-0.9327,-0.9313,-0.9322,-0.9291,-0.9278,-0.9253,-0.9243,-0.9255,-0.9202,-0.919,-0.9144,-0.9131,-0.9121,-0.9111,-0.9127,-0.9067,-0.9061,-0.9055,-0.9035,-0.9027,-0.9119,-0.9119,-0.9119,-0.912,0,-0.9328,-0.9302,-0.928,-0.9255,-0.9239,-0.9209,-0.9205,-0.9188,-0.919,-0.9184,-0.9146,-0.9132,-0.9105,-0.9095,-0.9097,-0.9049,-0.9056,-0.9067,-0.9088,-0.9046,-0.9027,-0.9019,-0.9117,-0.9117,-0.9118,-0.9118,0,0,-0.9267,-0.9243,-0.9234,-0.9223,-0.9203,-0.9182,-0.9152,-0.9127,-0.9112,-0.9094,-0.9068,-0.9032,-0.9042,-0.9028,-0.9028,-0.9006,-0.8961,-0.9019,-0.9019,-0.9007,-0.8906,-0.8896,-0.8887,-0.8966,-0.8965,-0.8963,-0.8906,0,-0.9216,-0.9165,-0.9164,-0.9116,-0.9091,-0.91,-0.9073,-0.9057,-0.9051,-0.9028,-0.9021,-0.8995,-0.9011,-0.9002,-0.8981,-0.8971,-0.894,-0.8976,-0.8939,-0.8938,-0.8942,-0.8877,-0.8867,-0.8814,-0.8899,-0.8898,-0.8897,0,-0.9151,-0.9131,-0.908,-0.9062,-0.9052,-0.9028,-0.9004,-0.8983,-0.8964,-0.8961,-0.8944,-0.8947,-0.8915,-0.8938,-0.8893,-0.8917,-0.8902,-0.8895,-0.8893,-0.8888,-0.8914,-0.8868,-0.8797,-0.8788,-0.8886,-0.8887,-0.8887,0,-0.9108,-0.9069,-0.9033,-0.9023,-0.9002,-0.8985,-0.8975,-0.8958,-0.8942,-0.8921,-0.8911,-0.8886,-0.8872,-0.8852,-0.8848,-0.8865,-0.8802,-0.8825,-0.8796,-0.8796,-0.8781,-0.8782,-0.8704,-0.8775,-0.8775,-0.8775,-0.8776,0,-0.9051,-0.9019,-0.9014,-0.8991,-0.8955,-0.8955,-0.8919,-0.891,-0.8895,-0.887,-0.8876,-0.8853,-0.885,-0.8825,-0.8821,-0.8783,-0.8777,-0.8772,-0.8771,-0.8771,-0.8771,-0.8759,-0.8762,-0.8773,-0.8774,-0.8774,-0.8775,0,-0.8997,-0.8993,-0.8953,-0.8937,-0.8932,-0.8905,-0.8891,-0.8868,-0.8863,-0.8831,-0.8823,-0.8814,-0.8785,-0.8779,-0.8745,-0.8742,-0.8696,-0.87,-0.8702,-0.8702,-0.8673,-0.8675,-0.8584,-0.8571,-0.8652,-0.8652,-0.8651,0,-0.896,-0.8935,-0.8916,-0.89,-0.8889,-0.8864,-0.8847,-0.8846,-0.8829,-0.8805,-0.8785,-0.8757,-0.8734,-0.8687,-0.8677,-0.865,-0.8652,-0.8622,-0.8648,-0.8647,-0.8649,-0.8649,-0.8646,-0.8616,-0.8615,-0.8615,-0.8614,0,-0.8893,-0.8892,-0.8869,-0.8844,-0.8825,-0.8805,-0.8787,-0.8773,-0.8769,-0.8749,-0.872,-0.8702,-0.8667,-0.8638,-0.8611,-0.86,-0.8605,-0.8606,-0.8598,-0.8595,-0.8597,-0.8593,-0.8686,-0.8608,-0.8608,-0.8609,-0.8609,-0.8609,-0.8845,-0.8823,-0.8805,-0.8779,-0.8765,-0.8747,-0.8725,-0.8716,-0.8692,-0.8663,-0.8664,-0.8631,-0.8612,-0.8577,-0.8564,-0.8537,-0.8547,-0.8535,-0.8532,-0.8528,-0.8524,-0.8603,-0.8533,-0.8533,-0.8533,-0.8533,-0.8533,0,-0.8776,-0.8766,-0.8741,-0.8715,-0.8694,-0.8702,-0.8682,-0.8663,-0.8634,-0.8617,-0.8594,-0.8559,-0.8531,-0.8518,-0.849,-0.8471,-0.8473,-0.8463,-0.8464,-0.8461,-0.8519,-0.8528,-0.8463,-0.8463,-0.8463,-0.8463,-0.8463,-0.8463,-0.8738,-0.8701,-0.8697,-0.8652,-0.8641,-0.8609,-0.8597,-0.858,-0.8566,-0.8527,-0.8503,-0.8496,-0.8479,-0.845,-0.8424,-0.8421,-0.8409,-0.8398,-0.8396,-0.845,-0.8457,-0.8464,-0.8472,-0.8396,-0.8396,-0.8339,-0.8339,-0.8339]}]]